Location: Cubitt Town
(51.4833°N, 0.0000°E)
Time: 00:18:52
(UTC+00:00)

Cosmos 1812 Rocket - Pass Details

Date: 15 May 2026
Orbit: 599 x 624 km, 82.5° (Epoch: 9 June)

Event Time Altitude Azimuth Distance (km) Brightness Sun altitude
Exits shadow 23:39:59 43° 203° (SSW) 876 3.9 -19.4°
Maximum altitude 23:41:23 78° 280° (W) 641 3.6 -19.4°
Drops below altitude 10° 23:45:51 10° 8° (N) 2,006 7.4 -19.4°
Sets 23:48:06 0° 10° (N) 2,919 8.5 -19.4°
